Location: Asheville, NC
(35.6000°N, 82.5500°W)
Time: 18:40:02
(UTC-04:00)

Vanguard 2 - Pass Details

Date: 10 March 2018
Orbit: 553 x 2939 km, 32.9° (Epoch: 19 June)

Event Time Altitude Azimuth Distance (km) Brightness Sun altitude
Rises 18:49:07 0° 283° (WNW) 6,545 14.2 -4.0°
Reaches altitude 10° 18:54:36 10° 275° (W) 5,258 13.7 -5.1°
Maximum altitude 19:06:04 29° 223° (SW) 3,153 11.2 -7.4°
Drops below altitude 10° 19:14:08 10° 168° (SSE) 3,621 10.8 -9.1°
Sets 19:17:09 0° 157° (SSE) 4,274 11.1 -9.7°
